QPF
0.04 0.03 0.02 0.03 0.03 0.03 0.03 0.04 0.04 0.03 0.03 0.03 0.03 0.02 0.02 0.02 0.02 0.02 0.02 0.02 0.02 0.02 0.03 0.03 0.03 0.03 0.03 0.02 0.01 0.01 0.01 0.01 0.01 0.00 0.00 0.01 0.01 0.01 0.01 0.01 0.01 0.01 0.01
0.05 0.03 0.03 0.03 0.03 0.03 0.04 0.05 0.04 0.04 0.03 0.02 0.02 0.02 0.02 0.02 0.02 0.02 0.02 0.02 0.03 0.02 0.02 0.04 0.04 0.05 0.04 0.02 0.01 0.01 0.01 0.00 0.00 0.00 0.00 0.00 0.00 0.00 0.00 0.00 0.00 0.00 0.01
0.05 0.03 0.02 0.02 0.02 0.03 0.04 0.05 0.06 0.05 0.04 0.03 0.02 0.01 0.02 0.01 0.02 0.02 0.02 0.02 0.02 0.02 0.02 0.04 0.06 0.07 0.05 0.04 0.02 0.01 0.01 0.01 0.00 0.00 0.00 0.00 0.00 0.00 0.00 0.00 0.00 0.00 0.00
0.05 0.04 0.03 0.02 0.02 0.02 0.04 0.06 0.07 0.06 0.06 0.05 0.03 0.02 0.01 0.01 0.01 0.02 0.02 0.02 0.02 0.02 0.02 0.02 0.04 0.06 0.07 0.05 0.03 0.02 0.01 0.01 0.00 0.00 0.00 0.00 0.00 0.00 0.00 0.00 0.00 0.00 0.00
0.07 0.07 0.04 0.03 0.02 0.02 0.03 0.06 0.08 0.07 0.07 0.10 0.10 0.07 0.04 0.02 0.02 0.02 0.02 0.03 0.03 0.02 0.02 0.03 0.03 0.04 0.06 0.06 0.04 0.02 0.01 0.01 0.00 0.00 0.00 0.00 0.00 0.00 0.00 0.00 0.00 0.00 0.00
0.06 0.07 0.06 0.05 0.03 0.02 0.01 0.03 0.08 0.10 0.09 0.08 0.08 0.08 0.07 0.06 0.04 0.03 0.03 0.03 0.03 0.03 0.04 0.03 0.03 0.03 0.04 0.06 0.05 0.03 0.02 0.01 0.00 0.00 0.00 0.00 0.00 0.00 0.00 0.00 0.00 0.00 0.00
0.03 0.05 0.06 0.06 0.05 0.03 0.01 0.02 0.04 0.07 0.09 0.07 0.06 0.06 0.05 0.05 0.05 0.04 0.04 0.04 0.03 0.03 0.03 0.03 0.03 0.03 0.03 0.03 0.04 0.04 0.03 0.02 0.01 0.00 0.00 0.00 0.00 0.00 0.00 0.00 0.00 0.01 0.01
0.02 0.03 0.04 0.05 0.04 0.03 0.02 0.02 0.03 0.04 0.05 0.05 0.04 0.04 0.06 0.06 0.06 0.06 0.05 0.06 0.06 0.05 0.05 0.04 0.03 0.03 0.03 0.02 0.04 0.05 0.04 0.03 0.02 0.01 0.01 0.00 0.00 0.00 0.00 0.00 0.00 0.01 0.01
0.01 0.02 0.03 0.04 0.04 0.03 0.02 0.02 0.03 0.03 0.04 0.04 0.04 0.05 0.05 0.06 0.07 0.07 0.07 0.07 0.08 0.07 0.06 0.06 0.06 0.04 0.04 0.04 0.04 0.05 0.05 0.04 0.03 0.03 0.02 0.01 0.01 0.01 0.00 0.00 0.01 0.01 0.01
0.02 0.02 0.02 0.02 0.02 0.03 0.02 0.02 0.02 0.03 0.03 0.03 0.03 0.03 0.04 0.05 0.06 0.08 0.07 0.07 0.07 0.07 0.08 0.08 0.09 0.08 0.06 0.06 0.06 0.05 0.06 0.06 0.05 0.05 0.03 0.01 0.01 0.01 0.01 0.01 0.01 0.00 0.00
0.03 0.03 0.03 0.03 0.02 0.02 0.02 0.02 0.02 0.02 0.03 0.03 0.03 0.03 0.03 0.03 0.03 0.05 0.05 0.05 0.05 0.05 0.07 0.10 0.12 0.12 0.10 0.09 0.08 0.07 0.06 0.06 0.07 0.06 0.04 0.03 0.01 0.01 0.01 0.01 0.00 0.00 0.00
0.02 0.03 0.04 0.03 0.02 0.02 0.02 0.02 0.02 0.02 0.02 0.02 0.02 0.02 0.02 0.02 0.03 0.04 0.04 0.04 0.04 0.04 0.05 0.07 0.11 0.14 0.12 0.09 0.08 0.08 0.06 0.05 0.06 0.06 0.05 0.04 0.02 0.01 0.01 0.01 0.00 0.00 0.00
0.02 0.03 0.03 0.02 0.02 0.01 0.01 0.01 0.01 0.02 0.02 0.02 0.02 0.02 0.02 0.02 0.02 0.03 0.04 0.04 0.04 0.05 0.04 0.04 0.05 0.08 0.12 0.11 0.08 0.08 0.07 0.06 0.06 0.06 0.06 0.05 0.04 0.03 0.02 0.02 0.01 0.00 0.00
0.02 0.02 0.02 0.02 0.02 0.02 0.02 0.01 0.01 0.02 0.02 0.03 0.03 0.02 0.02 0.02 0.02 0.03 0.04 0.04 0.05 0.05 0.04 0.03 0.02 0.03 0.05 0.08 0.10 0.11 0.09 0.08 0.07 0.07 0.07 0.06 0.05 0.03 0.02 0.02 0.01 0.01 0.00
0.01 0.01 0.02 0.02 0.02 0.02 0.02 0.03 0.03 0.03 0.03 0.03 0.03 0.03 0.02 0.01 0.02 0.02 0.03 0.04 0.05 0.05 0.04 0.03 0.02 0.03 0.03 0.04 0.07 0.07 0.08 0.09 0.08 0.07 0.06 0.06 0.05 0.03 0.02 0.01 0.01 0.00 0.00
0.01 0.01 0.02 0.01 0.02 0.02 0.02 0.03 0.03 0.04 0.04 0.03 0.03 0.03 0.03 0.02 0.02 0.02 0.03 0.04 0.05 0.05 0.04 0.03 0.03 0.02 0.03 0.03 0.04 0.04 0.05 0.07 0.08 0.07 0.05 0.05 0.04 0.03 0.02 0.01 0.01 0.00 0.00
0.01 0.01 0.01 0.01 0.01 0.02 0.02 0.02 0.02 0.03 0.04 0.04 0.04 0.04 0.03 0.03 0.02 0.02 0.03 0.03 0.03 0.04 0.04 0.03 0.03 0.02 0.02 0.02 0.03 0.03 0.04 0.05 0.07 0.07 0.05 0.04 0.04 0.04 0.03 0.02 0.01 0.00 0.00
0.02 0.01 0.01 0.01 0.01 0.01 0.02 0.02 0.02 0.02 0.04 0.04 0.04 0.04 0.04 0.04 0.03 0.03 0.02 0.02 0.03 0.03 0.03 0.03 0.02 0.02 0.02 0.02 0.02 0.03 0.04 0.04 0.05 0.07 0.06 0.04 0.04 0.03 0.02 0.02 0.01 0.01 0.00
0.01 0.01 0.01 0.01 0.02 0.02 0.02 0.02 0.02 0.02 0.02 0.03 0.03 0.03 0.04 0.04 0.04 0.04 0.04 0.03 0.03 0.03 0.02 0.02 0.02 0.02 0.03 0.02 0.02 0.03 0.03 0.04 0.04 0.05 0.05 0.05 0.04 0.03 0.02 0.02 0.01 0.01 0.00
0.01 0.01 0.01 0.01 0.01 0.01 0.01 0.02 0.02 0.02 0.02 0.03 0.02 0.03 0.04 0.03 0.03 0.03 0.03 0.03 0.03 0.03 0.02 0.02 0.02 0.02 0.02 0.02 0.02 0.02 0.03 0.04 0.04 0.04 0.04 0.05 0.05 0.04 0.03 0.02 0.01 0.00 0.00
0.01 0.01 0.01 0.01 0.01 0.01 0.01 0.01 0.02 0.02 0.02 0.02 0.02 0.02 0.02 0.03 0.03 0.02 0.02 0.01 0.02 0.02 0.02 0.02 0.02 0.02 0.02 0.02 0.02 0.02 0.02 0.03 0.04 0.04 0.04 0.05 0.05 0.05 0.04 0.03 0.01 0.01 0.00
0.02 0.02 0.02 0.02 0.02 0.02 0.02 0.03 0.02 0.02 0.02 0.02 0.02 0.02 0.02 0.02 0.02 0.02 0.02 0.01 0.01 0.02 0.02 0.02 0.02 0.02 0.01 0.01 0.01 0.01 0.02 0.02 0.03 0.04 0.03 0.04 0.04 0.05 0.05 0.04 0.03 0.01 0.01
0.02 0.02 0.02 0.03 0.03 0.03 0.03 0.03 0.02 0.02 0.02 0.02 0.02 0.03 0.02 0.02 0.02 0.02 0.02 0.01 0.01 0.02 0.02 0.02 0.03 0.02 0.01 0.01 0.01 0.01 0.01 0.01 0.02 0.03 0.03 0.03 0.03 0.03 0.03 0.03 0.03 0.03 0.02
0.02 0.02 0.02 0.02 0.02 0.02 0.02 0.02 0.02 0.02 0.02 0.02 0.02 0.02 0.02 0.02 0.02 0.02 0.02 0.02 0.01 0.02 0.02 0.02 0.02 0.02 0.01 0.02 0.01 0.01 0.01 0.01 0.01 0.02 0.02 0.02 0.02 0.03 0.03 0.03 0.03 0.02 0.02
0.03 0.02 0.01 0.01 0.01 0.01 0.02 0.02 0.02 0.02 0.02 0.03 0.02 0.02 0.02 0.02 0.03 0.03 0.02 0.02 0.02 0.02 0.02 0.03 0.02 0.02 0.02 0.03 0.04 0.02 0.02 0.02 0.03 0.03 0.02 0.02 0.02 0.02 0.02 0.03 0.02 0.02 0.02
0.03 0.02 0.02 0.02 0.02 0.01 0.02 0.03 0.03 0.03 0.03 0.03 0.02 0.02 0.02 0.02 0.03 0.03 0.02 0.02 0.02 0.01 0.02 0.03 0.03 0.03 0.03 0.04 0.05 0.03 0.02 0.02 0.03 0.03 0.02 0.02 0.02 0.02 0.02 0.02 0.02 0.02 0.02
MSLP
1017.20 1017.53 1017.80 1018.01 1018.18 1018.33 1018.48 1018.66 1018.85 1019.05 1019.24 1019.39 1019.48 1019.50 1019.47 1019.39 1019.31 1019.26 1019.25 1019.31 1019.44 1019.62 1019.85 1020.11 1020.38 1020.67 1020.97 1021.30 1021.65 1022.04 1022.44 1022.84 1023.22 1023.57 1023.85 1024.07 1024.23 1024.33 1024.41 1024.45 1024.50 1024.53 1024.57
1017.27 1017.61 1017.89 1018.11 1018.31 1018.50 1018.71 1018.94 1019.20 1019.46 1019.70 1019.88 1019.99 1020.01 1019.96 1019.85 1019.73 1019.61 1019.54 1019.52 1019.58 1019.70 1019.88 1020.11 1020.37 1020.68 1021.01 1021.39 1021.80 1022.25 1022.71 1023.16 1023.58 1023.95 1024.25 1024.48 1024.63 1024.72 1024.77 1024.81 1024.83 1024.86 1024.88
1017.32 1017.66 1017.95 1018.19 1018.42 1018.67 1018.93 1019.23 1019.56 1019.88 1020.17 1020.40 1020.54 1020.58 1020.53 1020.41 1020.25 1020.09 1019.96 1019.88 1019.87 1019.92 1020.05 1020.23 1020.47 1020.76 1021.11 1021.51 1021.96 1022.45 1022.95 1023.43 1023.88 1024.27 1024.57 1024.79 1024.94 1025.02 1025.05 1025.07 1025.08 1025.10 1025.12
1017.33 1017.67 1017.95 1018.21 1018.47 1018.75 1019.08 1019.44 1019.82 1020.21 1020.56 1020.84 1021.02 1021.10 1021.08 1020.97 1020.81 1020.64 1020.48 1020.36 1020.30 1020.29 1020.36 1020.49 1020.69 1020.96 1021.29 1021.69 1022.15 1022.64 1023.15 1023.65 1024.11 1024.49 1024.80 1025.01 1025.15 1025.22 1025.25 1025.25 1025.25 1025.26 1025.28
1017.29 1017.60 1017.87 1018.13 1018.40 1018.71 1019.06 1019.47 1019.90 1020.34 1020.74 1021.08 1021.32 1021.46 1021.49 1021.44 1021.33 1021.18 1021.04 1020.91 1020.83 1020.79 1020.81 1020.90 1021.05 1021.27 1021.57 1021.94 1022.37 1022.85 1023.34 1023.82 1024.27 1024.65 1024.94 1025.15 1025.28 1025.35 1025.38 1025.38 1025.38 1025.39 1025.40
1017.18 1017.45 1017.69 1017.93 1018.20 1018.50 1018.87 1019.29 1019.75 1020.21 1020.66 1021.05 1021.35 1021.57 1021.68 1021.72 1021.69 1021.63 1021.54 1021.46 1021.40 1021.36 1021.36 1021.41 1021.52 1021.69 1021.93 1022.25 1022.63 1023.06 1023.52 1023.97 1024.38 1024.74 1025.03 1025.23 1025.37 1025.45 1025.48 1025.50 1025.51 1025.52 1025.53
1017.01 1017.23 1017.43 1017.64 1017.87 1018.15 1018.50 1018.90 1019.36 1019.83 1020.29 1020.72 1021.09 1021.39 1021.61 1021.76 1021.85 1021.90 1021.91 1021.91 1021.91 1021.90 1021.92 1021.95 1022.03 1022.16 1022.35 1022.61 1022.93 1023.30 1023.70 1024.10 1024.48 1024.82 1025.09 1025.30 1025.45 1025.55 1025.62 1025.66 1025.69 1025.71 1025.72
1016.82 1016.98 1017.13 1017.29 1017.48 1017.71 1018.02 1018.38 1018.80 1019.25 1019.71 1020.16 1020.57 1020.94 1021.26 1021.53 1021.76 1021.94 1022.09 1022.20 1022.28 1022.34 1022.40 1022.45 1022.52 1022.63 1022.78 1022.99 1023.25 1023.56 1023.90 1024.25 1024.59 1024.91 1025.18 1025.40 1025.58 1025.71 1025.81 1025.89 1025.95 1025.98 1026.00
1016.63 1016.74 1016.84 1016.95 1017.09 1017.27 1017.51 1017.81 1018.17 1018.58 1019.01 1019.44 1019.88 1020.30 1020.70 1021.08 1021.42 1021.74 1022.01 1022.25 1022.44 1022.59 1022.71 1022.81 1022.91 1023.02 1023.15 1023.33 1023.56 1023.82 1024.11 1024.42 1024.73 1025.03 1025.31 1025.55 1025.76 1025.94 1026.09 1026.21 1026.30 1026.35 1026.38
1016.45 1016.54 1016.60 1016.68 1016.77 1016.90 1017.08 1017.31 1017.60 1017.93 1018.30 1018.71 1019.13 1019.57 1020.01 1020.46 1020.89 1021.31 1021.69 1022.04 1022.34 1022.59 1022.80 1022.97 1023.12 1023.27 1023.43 1023.61 1023.82 1024.06 1024.32 1024.61 1024.90 1025.19 1025.47 1025.74 1025.99 1026.21 1026.41 1026.57 1026.70 1026.78 1026.81
1016.31 1016.38 1016.44 1016.49 1016.56 1016.65 1016.77 1016.94 1017.15 1017.41 1017.71 1018.05 1018.44 1018.85 1019.30 1019.77 1020.24 1020.72 1021.18 1021.61 1022.00 1022.34 1022.64 1022.90 1023.13 1023.35 1023.56 1023.78 1024.01 1024.25 1024.52 1024.79 1025.08 1025.37 1025.66 1025.95 1026.23 1026.49 1026.73 1026.93 1027.09 1027.18 1027.22
1016.17 1016.25 1016.32 1016.38 1016.44 1016.51 1016.61 1016.72 1016.87 1017.06 1017.28 1017.55 1017.87 1018.23 1018.63 1019.08 1019.55 1020.03 1020.52 1021.00 1021.45 1021.87 1022.26 1022.62 1022.94 1023.25 1023.54 1023.83 1024.11 1024.39 1024.67 1024.96 1025.25 1025.54 1025.84 1026.14 1026.44 1026.73 1027.00 1027.23 1027.41 1027.51 1027.55
1016.00 1016.11 1016.21 1016.29 1016.37 1016.45 1016.54 1016.63 1016.74 1016.87 1017.03 1017.22 1017.46 1017.74 1018.08 1018.45 1018.88 1019.33 1019.81 1020.29 1020.77 1021.25 1021.71 1022.16 1022.59 1023.00 1023.39 1023.76 1024.12 1024.45 1024.78 1025.08 1025.38 1025.68 1025.98 1026.29 1026.59 1026.89 1027.17 1027.41 1027.60 1027.71 1027.74
1015.78 1015.92 1016.05 1016.17 1016.29 1016.39 1016.49 1016.59 1016.68 1016.78 1016.89 1017.03 1017.19 1017.40 1017.65 1017.94 1018.29 1018.68 1019.11 1019.57 1020.05 1020.56 1021.07 1021.60 1022.12 1022.63 1023.13 1023.60 1024.04 1024.45 1024.81 1025.15 1025.47 1025.77 1026.06 1026.36 1026.66 1026.95 1027.22 1027.46 1027.64 1027.75 1027.78
1015.47 1015.62 1015.78 1015.95 1016.11 1016.25 1016.39 1016.51 1016.62 1016.72 1016.81 1016.91 1017.03 1017.17 1017.34 1017.56 1017.82 1018.13 1018.49 1018.91 1019.37 1019.89 1020.44 1021.02 1021.62 1022.22 1022.81 1023.37 1023.90 1024.37 1024.79 1025.16 1025.49 1025.80 1026.08 1026.36 1026.64 1026.91 1027.17 1027.39 1027.56 1027.67 1027.69
1015.06 1015.22 1015.39 1015.59 1015.78 1015.97 1016.16 1016.32 1016.46 1016.59 1016.70 1016.80 1016.89 1017.00 1017.12 1017.28 1017.47 1017.71 1018.01 1018.38 1018.81 1019.32 1019.88 1020.49 1021.14 1021.81 1022.47 1023.11 1023.70 1024.24 1024.70 1025.11 1025.45 1025.76 1026.04 1026.30 1026.55 1026.80 1027.03 1027.24 1027.39 1027.49 1027.52
1014.59 1014.72 1014.88 1015.08 1015.30 1015.53 1015.75 1015.96 1016.16 1016.33 1016.48 1016.61 1016.73 1016.83 1016.94 1017.07 1017.23 1017.43 1017.69 1018.01 1018.41 1018.89 1019.45 1020.07 1020.74 1021.44 1022.14 1022.83 1023.47 1024.04 1024.55 1024.98 1025.35 1025.66 1025.94 1026.19 1026.42 1026.65 1026.86 1027.04 1027.18 1027.27 1027.30
1014.11 1014.17 1014.30 1014.48 1014.69 1014.93 1015.18 1015.44 1015.68 1015.91 1016.12 1016.30 1016.47 1016.61 1016.76 1016.90 1017.06 1017.25 1017.49 1017.79 1018.17 1018.62 1019.16 1019.76 1020.42 1021.12 1021.83 1022.53 1023.19 1023.79 1024.33 1024.79 1025.17 1025.50 1025.79 1026.04 1026.27 1026.48 1026.67 1026.84 1026.97 1027.06 1027.08
1013.66 1013.64 1013.70 1013.83 1014.01 1014.23 1014.49 1014.76 1015.05 1015.33 1015.60 1015.85 1016.08 1016.30 1016.50 1016.69 1016.89 1017.11 1017.37 1017.67 1018.03 1018.47 1018.97 1019.54 1020.17 1020.84 1021.53 1022.21 1022.87 1023.48 1024.02 1024.51 1024.92 1025.28 1025.58 1025.85 1026.09 1026.30 1026.49 1026.65 1026.77 1026.84 1026.87
1013.31 1013.19 1013.16 1013.20 1013.32 1013.49 1013.72 1013.99 1014.29 1014.61 1014.93 1015.24 1015.55 1015.85 1016.13 1016.40 1016.67 1016.95 1017.24 1017.57 1017.94 1018.36 1018.83 1019.36 1019.95 1020.57 1021.21 1021.85 1022.49 1023.09 1023.64 1024.14 1024.59 1024.98 1025.32 1025.62 1025.87 1026.10 1026.29 1026.44 1026.56 1026.62 1026.65
1013.08 1012.85 1012.70 1012.64 1012.67 1012.77 1012.94 1013.17 1013.46 1013.78 1014.13 1014.49 1014.87 1015.24 1015.61 1015.97 1016.32 1016.68 1017.04 1017.41 1017.80 1018.22 1018.68 1019.17 1019.70 1020.26 1020.85 1021.45 1022.04 1022.62 1023.18 1023.70 1024.17 1024.61 1024.99 1025.32 1025.61 1025.86 1026.06 1026.21 1026.31 1026.37 1026.38
1012.97 1012.62 1012.36 1012.19 1012.10 1012.10 1012.19 1012.36 1012.59 1012.89 1013.24 1013.63 1014.04 1014.47 1014.92 1015.36 1015.80 1016.24 1016.67 1017.10 1017.54 1017.98 1018.43 1018.90 1019.39 1019.90 1020.44 1020.99 1021.55 1022.11 1022.66 1023.20 1023.70 1024.17 1024.60 1024.98 1025.30 1025.57 1025.78 1025.93 1026.02 1026.06 1026.05
1012.96 1012.50 1012.12 1011.83 1011.63 1011.52 1011.51 1011.58 1011.74 1011.99 1012.30 1012.67 1013.10 1013.56 1014.05 1014.56 1015.08 1015.60 1016.12 1016.62 1017.11 1017.59 1018.06 1018.53 1019.00 1019.48 1019.98 1020.49 1021.03 1021.57 1022.13 1022.68 1023.21 1023.72 1024.18 1024.59 1024.95 1025.23 1025.45 1025.59 1025.67 1025.69 1025.65
1013.01 1012.45 1011.97 1011.57 1011.26 1011.04 1010.91 1010.88 1010.95 1011.11 1011.36 1011.69 1012.09 1012.54 1013.05 1013.60 1014.18 1014.77 1015.35 1015.93 1016.49 1017.03 1017.54 1018.04 1018.52 1019.00 1019.49 1020.00 1020.52 1021.06 1021.62 1022.19 1022.74 1023.28 1023.77 1024.21 1024.58 1024.87 1025.08 1025.22 1025.27 1025.26 1025.20
1013.07 1012.44 1011.88 1011.38 1010.97 1010.65 1010.42 1010.29 1010.25 1010.32 1010.47 1010.73 1011.06 1011.49 1011.98 1012.53 1013.14 1013.77 1014.43 1015.08 1015.71 1016.32 1016.90 1017.45 1017.98 1018.50 1019.01 1019.53 1020.07 1020.62 1021.19 1021.77 1022.34 1022.89 1023.40 1023.85 1024.22 1024.51 1024.72 1024.83 1024.87 1024.83 1024.74
1013.11 1012.43 1011.81 1011.26 1010.77 1010.37 1010.05 1009.82 1009.68 1009.63 1009.69 1009.85 1010.10 1010.45 1010.90 1011.44 1012.04 1012.70 1013.40 1014.12 1014.83 1015.52 1016.19 1016.82 1017.42 1018.00 1018.57 1019.13 1019.70 1020.28 1020.86 1021.46 1022.04 1022.59 1023.10 1023.54 1023.91 1024.19 1024.38 1024.47 1024.49 1024.43 1024.32
Thickness
5645 5646 5648 5650 5651 5653 5654 5655 5657 5657 5657 5657 5658 5659 5659 5660 5660 5660 5659 5658 5659 5659 5659 5659 5658 5657 5656 5655 5653 5652 5651 5650 5649 5648 5646 5645 5644 5643 5642 5640 5639 5638 5637
5637 5638 5640 5642 5644 5645 5646 5648 5649 5650 5650 5650 5650 5650 5651 5652 5652 5652 5652 5651 5651 5652 5652 5652 5652 5651 5650 5648 5647 5646 5644 5643 5642 5640 5639 5638 5637 5635 5634 5633 5632 5631 5629
5629 5630 5632 5634 5636 5637 5638 5640 5640 5641 5642 5642 5642 5642 5642 5643 5644 5644 5644 5644 5644 5644 5644 5645 5644 5644 5643 5642 5640 5639 5637 5636 5634 5633 5632 5630 5629 5628 5627 5625 5624 5623 5621
5621 5622 5624 5625 5627 5628 5630 5632 5633 5633 5633 5634 5633 5633 5633 5633 5634 5635 5635 5636 5636 5636 5636 5636 5637 5636 5636 5634 5633 5632 5630 5629 5627 5626 5624 5623 5621 5620 5619 5617 5616 5615 5614
5611 5613 5615 5616 5617 5619 5621 5622 5624 5624 5624 5624 5623 5623 5623 5623 5624 5624 5626 5626 5627 5627 5628 5628 5628 5628 5628 5627 5626 5624 5623 5621 5619 5618 5616 5615 5613 5612 5611 5609 5608 5607 5606
5602 5604 5606 5607 5608 5610 5612 5613 5613 5614 5614 5613 5613 5611 5612 5612 5613 5614 5616 5616 5617 5617 5618 5619 5619 5619 5619 5618 5618 5617 5615 5613 5611 5610 5608 5607 5605 5604 5602 5601 5599 5598 5597
5594 5595 5597 5598 5599 5601 5602 5603 5603 5603 5602 5602 5602 5601 5600 5601 5602 5603 5605 5607 5608 5608 5609 5610 5610 5611 5610 5609 5609 5608 5607 5605 5603 5601 5600 5598 5597 5596 5594 5593 5591 5589 5588
5585 5587 5588 5589 5590 5591 5592 5593 5594 5594 5592 5593 5595 5594 5593 5592 5593 5593 5594 5596 5598 5598 5599 5600 5600 5601 5601 5600 5600 5598 5598 5597 5595 5593 5591 5590 5588 5587 5585 5584 5582 5581 5579
5576 5578 5579 5580 5581 5582 5582 5583 5585 5586 5585 5583 5586 5588 5588 5590 5587 5585 5585 5586 5588 5589 5590 5590 5590 5591 5591 5590 5590 5588 5588 5587 5586 5585 5583 5581 5579 5578 5576 5575 5573 5571 5570
5568 5569 5570 5571 5572 5573 5574 5574 5575 5576 5577 5576 5575 5576 5580 5582 5581 5579 5577 5578 5578 5579 5580 5580 5580 5580 5580 5580 5579 5579 5578 5577 5576 5575 5574 5572 5570 5569 5567 5566 5564 5562 5560
5559 5560 5561 5562 5563 5564 5565 5566 5566 5567 5569 5570 5569 5568 5568 5569 5573 5574 5573 5571 5570 5570 5570 5571 5571 5571 5571 5570 5570 5569 5568 5567 5566 5565 5564 5563 5561 5559 5557 5556 5554 5552 5550
5551 5552 5553 5554 5554 5556 5557 5557 5557 5558 5560 5561 5561 5562 5562 5563 5564 5566 5567 5565 5564 5563 5561 5561 5561 5562 5562 5561 5560 5559 5558 5557 5556 5555 5554 5553 5551 5549 5548 5546 5544 5542 5540
5545 5545 5545 5546 5547 5548 5548 5548 5548 5549 5550 5551 5552 5553 5554 5556 5556 5557 5558 5556 5555 5554 5552 5552 5553 5552 5552 5552 5551 5549 5548 5547 5546 5545 5544 5543 5541 5539 5537 5536 5534 5532 5530
5539 5539 5538 5539 5540 5540 5540 5539 5539 5541 5541 5542 5543 5543 5544 5546 5546 5547 5549 5548 5546 5545 5545 5546 5543 5543 5542 5542 5541 5539 5538 5537 5536 5535 5534 5532 5530 5529 5527 5525 5523 5521 5519
5532 5532 5532 5532 5532 5532 5532 5531 5531 5532 5532 5533 5534 5534 5535 5536 5536 5538 5538 5540 5540 5540 5540 5539 5536 5534 5532 5531 5530 5529 5528 5527 5526 5525 5523 5522 5520 5518 5517 5515 5513 5510 5508
5525 5525 5524 5524 5524 5524 5523 5523 5524 5524 5524 5524 5524 5526 5526 5527 5527 5528 5528 5529 5530 5532 5532 5531 5527 5524 5522 5520 5519 5518 5517 5516 5515 5514 5513 5512 5510 5508 5506 5504 5502 5499 5497
5516 5517 5516 5516 5515 5515 5515 5516 5516 5516 5516 5516 5516 5517 5518 5518 5518 5518 5518 5518 5519 5520 5520 5517 5514 5512 5511 5510 5508 5507 5506 5505 5505 5504 5502 5501 5499 5498 5496 5493 5491 5488 5486
5508 5508 5508 5507 5507 5507 5507 5508 5508 5508 5508 5508 5508 5508 5508 5507 5508 5508 5508 5508 5508 5508 5508 5507 5504 5501 5500 5499 5498 5496 5495 5494 5494 5493 5491 5490 5488 5487 5485 5482 5480 5477 5475
5499 5499 5498 5499 5498 5498 5498 5499 5500 5499 5500 5500 5500 5500 5499 5498 5499 5498 5497 5497 5497 5496 5496 5496 5494 5490 5489 5487 5486 5484 5484 5483 5482 5481 5480 5479 5477 5475 5473 5471 5468 5466 5463
5490 5490 5490 5490 5489 5489 5489 5490 5490 5491 5491 5491 5490 5490 5490 5489 5489 5488 5487 5487 5486 5484 5484 5483 5482 5480 5478 5476 5473 5473 5472 5471 5470 5469 5467 5466 5465 5463 5461 5459 5457 5454 5451
5480 5480 5480 5481 5480 5480 5481 5481 5481 5481 5481 5481 5480 5479 5479 5478 5478 5477 5477 5476 5474 5473 5472 5471 5470 5469 5468 5465 5464 5462 5461 5460 5459 5456 5455 5454 5453 5452 5449 5447 5445 5442 5439
5471 5471 5471 5471 5471 5471 5470 5470 5470 5470 5470 5470 5469 5469 5468 5467 5466 5465 5464 5463 5462 5462 5461 5460 5460 5459 5459 5456 5454 5451 5449 5448 5448 5445 5443 5443 5440 5440 5438 5436 5433 5429 5426
5462 5463 5463 5462 5461 5461 5460 5459 5459 5459 5459 5459 5458 5458 5457 5456 5454 5454 5453 5451 5450 5449 5449 5449 5449 5449 5447 5445 5442 5439 5438 5437 5437 5434 5430 5432 5429 5428 5427 5424 5420 5416 5412
5453 5453 5453 5452 5452 5451 5450 5450 5448 5448 5448 5448 5447 5447 5446 5445 5443 5442 5441 5440 5440 5439 5438 5436 5437 5437 5435 5432 5430 5429 5426 5424 5422 5419 5417 5418 5418 5416 5414 5411 5408 5403 5399
5443 5443 5443 5443 5443 5442 5440 5439 5438 5437 5437 5437 5436 5435 5434 5434 5432 5430 5429 5429 5428 5427 5424 5423 5423 5422 5420 5418 5416 5414 5412 5410 5410 5409 5404 5402 5404 5401 5400 5398 5394 5390 5387
5432 5432 5432 5432 5432 5432 5430 5429 5427 5427 5427 5426 5425 5424 5422 5422 5421 5419 5417 5417 5416 5416 5413 5412 5410 5409 5408 5406 5403 5403 5402 5399 5398 5396 5393 5388 5388 5385 5385 5385 5381 5377 5373